This demonstration page uses our WeatherBlox Daily Observations layout. Learn more.

Left ArrowRight Arrow

39.12711, -84.51439

Hourly Observations for June 28, 2022

Temp ( °F °C ) Dew Point ( °F °C ) Humidity (%) Winds ( mph kmh ) Pressure ( in mb ) Visibility ( mi km ) Precip ( " mm )
12:53 am 00:53 Clear 59 15 50 10 72 72 Calm 30.22 1023 10 16 0.00 0.00
1:53 am 01:53 Clear 58 14.4 48 8.9 70 70 Calm 30.23 1024 10 16 0.00 0.00
2:53 am 02:53 Clear 55 12.8 50 10 83 83 Calm 30.23 1024 10 16 0.00 0.00
3:53 am 03:53 Clear 54 12.2 50 10 87 87 Calm 30.23 1024 10 16 0.00 0.00
4:53 am 04:53 Clear 53 11.7 49 9.4 86 86 NE 3 6 30.23 1024 10 16 0.00 0.00
5:53 am 05:53 Clear 52 11.1 51 10.6 97 97 Calm 30.24 1024 10 16 0.00 0.00
6:53 am 06:53 Sunny 50 10 49 9.4 96 96 Calm 30.25 1024 10 16 0.00 0.00
7:53 am 07:53 Sunny 56 13.3 53 11.7 90 90 Calm 30.26 1025 10 16 0.00 0.00
8:53 am 08:53 Sunny 62 16.7 53 11.7 73 73 Calm 30.27 1025 10 16 0.00 0.00
9:53 am 09:53 Sunny 67 19.4 49 9.4 53 53 Calm 30.27 1025 10 16 0.00 0.00
10:53 am 10:53 Sunny 69 20.6 50 10 51 51 NE 5 7 30.27 1025 10 16 0.00 0.00
11:53 am 11:53 Sunny 74 23.3 48 8.9 40 40 VRB 3 6 30.27 1025 10 16 0.00 0.00
12:53 pm 12:53 Sunny 73 22.8 49 9.4 43 43 VRB 3 6 30.26 1025 10 16 0.00 0.00
1:53 pm 13:53 Sunny 75 23.9 47 8.3 37 37 VRB 5 7 30.25 1024 10 16 0.00 0.00
2:53 pm 14:53 Sunny 76 24.4 42 5.6 30 30 ESE 3 6 30.23 1024 10 16 0.00 0.00
3:53 pm 15:53 Sunny 78 25.6 46 7.8 32 32 S 6 9 30.22 1023 10 16 0.00 0.00
4:53 pm 16:53 Sunny 78 25.6 48 8.9 35 35 E 5 7 30.20 1023 10 16 0.00 0.00
5:53 pm 17:53 Sunny 78 25.6 49 9.4 36 36 ESE 5 7 30.19 1022 10 16 0.00 0.00
6:53 pm 18:53 Sunny 78 25.6 48 8.9 35 35 Calm 30.18 1022 10 16 0.00 0.00
7:53 pm 19:53 Sunny 76 24.4 58 14.4 54 54 Calm 30.17 1022 10 16 0.00 0.00
8:53 pm 20:53 Sunny 70 21.1 57 13.9 64 64 Calm 30.17 1022 10 16 0.00 0.00
9:53 pm 21:53 Clear 64 17.8 56 13.3 75 75 Calm 30.18 1022 10 16 0.00 0.00
10:53 pm 22:53 Clear 60 15.6 54 12.2 80 80 Calm 30.20 1023 10 16 0.00 0.00
11:53 pm 23:53 Clear 58 14.4 55 12.8 90 90 Calm 30.21 1023 10 16 0.00 0.00

Powered by AerisWeather